Tracking 30109 objects as of 12-Dec-2024
HD Live streaming from Space Station
objects crossing your sky now

STARLINK-32022

Track STARLINK-32022 now!
10-day predictions
STARLINK-32022 is classified as:


NORAD ID: 60149
Int'l Code: 2024-120Q
Perigee: 453.6 km
Apogee: 455.1 km
Inclination: 53.2 °
Period: 93.5 minutes
Semi major axis: 6825 km
RCS: Unknown
Launch date: June 27, 2024
Source: United States (US)
Launch site: AIR FORCE EASTERN TEST RANGE (AFETR)
Your satellite tracking list
Your tracking list is empty




NASA's NSSDC Master Catalog

Two Line Element Set (TLE):
1 60149U 24120Q   24346.49936204  .00019160  00000-0  48773-3 0  9994
2 60149  53.1605 265.4466 0001068  73.1925 286.9197 15.39623235 27063
Source of the keplerian elements: AFSPC